Lid_Strength_Index
5 7 7 7 6 6 6 6 7 7 6 7 7 7 6 6 5 5 4 3 3 4 4 4 6 6 7 8 9 11 12 11 12 12 12 12 13 13 13 12 12 12 11
5 6 8 8 6 7 7 6 6 7 6 5 7 7 7 7 6 5 5 4 4 4 4 5 6 7 8 8 9 9 11 13 13 13 13 14 13 13 13 13 12 13 12
6 6 10 8 8 7 7 6 6 7 6 5 6 7 6 7 7 7 6 5 4 4 5 5 7 8 9 10 11 10 11 13 14 14 13 16 16 15 14 14 13 13 13
5 6 10 9 8 7 7 6 6 6 6 6 6 6 6 8 7 7 6 6 5 5 5 6 7 9 10 11 11 11 12 12 14 13 13 14 14 16 16 14 14 13 13
6 6 10 9 8 7 7 7 6 6 6 6 6 7 6 7 7 7 7 6 6 5 5 7 8 9 10 11 12 12 12 12 13 13 14 15 15 15 16 17 15 14 14
6 5 8 9 8 8 7 6 6 6 6 6 6 7 7 7 7 7 7 6 6 6 6 7 8 10 11 11 12 12 12 13 13 13 13 14 15 15 16 16 16 16 15
6 6 7 9 9 8 7 6 6 6 6 5 5 6 7 6 6 7 6 6 6 6 7 7 9 10 11 10 11 12 12 12 13 13 13 13 13 13 14 15 16 16 16
6 6 5 8 8 8 7 7 6 6 5 5 5 5 6 6 6 6 5 5 6 6 7 7 9 10 10 10 11 12 12 13 13 13 14 14 14 14 14 14 15 17 16
6 6 6 7 8 8 7 7 6 6 5 6 5 6 6 5 5 5 5 5 6 6 7 8 10 10 11 11 11 12 13 13 13 14 14 14 14 14 14 14 14 16 17
6 6 6 5 7 7 6 6 6 6 6 6 5 5 6 5 5 5 5 5 6 7 8 8 10 10 10 11 12 13 12 13 13 14 14 15 15 15 15 15 15 15 16
6 5 5 5 7 7 7 7 7 6 6 6 5 6 6 6 5 5 5 5 6 7 8 9 10 10 11 11 12 12 13 13 13 14 14 15 15 16 16 16 16 16 16
5 5 4 5 6 7 7 7 6 6 6 5 5 7 6 6 5 5 5 5 6 7 8 9 10 10 11 11 12 12 13 13 14 14 14 15 15 16 16 16 17 17 17
6 6 5 5 5 6 6 6 6 6 6 6 6 6 7 7 6 5 6 5 7 7 8 9 10 10 11 12 12 12 13 13 13 13 14 15 16 16 16 16 17 17 16
6 6 6 5 4 5 6 6 6 6 6 7 6 7 6 6 6 5 6 6 7 8 9 9 10 10 11 12 12 12 13 13 13 13 14 14 15 16 16 16 17 17 17
6 6 6 5 5 5 5 5 6 6 5 7 7 8 7 6 6 6 6 7 7 8 9 9 10 10 11 12 12 12 13 14 13 13 14 14 14 14 15 16 17 17 18
7 6 6 5 5 5 5 5 5 6 6 6 7 7 7 7 7 8 7 8 8 9 9 10 11 11 12 12 12 12 13 13 13 14 14 14 12 13 13 14 15 16 17
7 7 7 5 4 4 5 6 6 7 6 6 7 6 7 8 8 8 8 8 9 9 10 11 12 12 12 12 12 12 13 14 14 15 15 14 14 14 15 15 16 17 16
7 7 7 7 5 4 4 6 6 7 7 7 7 7 8 8 9 9 9 9 9 10 11 12 12 13 12 12 12 13 14 14 15 15 15 15 16 16 16 17 18 18 17
7 7 7 6 6 4 5 6 7 7 7 8 8 8 8 9 10 9 9 10 10 11 12 12 13 13 13 12 13 14 15 15 16 15 15 16 16 15 16 17 18 18 18
7 7 7 6 6 5 5 6 7 7 6 6 7 8 8 9 10 10 10 11 11 12 12 13 13 13 14 13 13 14 15 16 16 16 16 15 16 15 16 18 18 19 18
7 7 7 7 7 6 6 7 7 7 6 7 7 8 9 9 8 9 10 11 12 13 13 14 14 14 15 14 13 14 15 16 17 17 17 16 15 15 16 17 18 18 17
7 6 7 7 7 6 6 7 7 8 7 7 8 8 9 8 9 11 11 12 13 13 14 15 15 15 15 14 13 14 15 15 16 17 17 16 15 15 15 16 16 16 17
9 7 7 6 6 6 6 7 7 7 8 7 8 9 8 9 10 11 12 12 12 14 15 15 16 17 16 15 14 14 14 15 17 16 16 16 15 15 16 16 16 18 18
10 8 8 7 6 6 5 5 6 7 8 8 9 10 9 10 10 10 11 12 12 13 14 15 15 17 17 16 15 15 15 15 16 17 16 17 18 19 19 18 17 18 18
10 9 8 8 7 6 6 6 6 7 8 9 9 10 10 11 11 10 11 11 11 12 13 14 14 16 17 17 15 15 16 17 17 18 19 20 19 20 20 20 19 19 19
9 9 8 8 7 7 6 6 6 7 7 9 9 10 11 12 11 12 14 13 12 12 12 13 13 14 14 15 14 14 15 16 17 20 21 21 21 20 21 21 21 21 21